Wind_Speed
34 33 33 33 33 32 30 27 26 25 24 23 23 22 20 18 17 16 15 13 12 12 12 12 11 11 10 10 9 9 9 8 8 8 8 7 6 6 6 5 5 5 4 5 5 5 5 6 6
36 35 35 36 36 34 31 28 27 26 26 25 25 24 22 20 18 17 16 15 14 13 13 13 13 12 12 12 11 11 11 10 10 9 9 8 8 7 7 7 7 6 6 6 7 7 7 7 8
36 37 37 38 37 34 31 29 28 28 28 28 27 25 24 22 20 19 18 16 16 15 15 15 14 14 13 13 13 12 12 12 12 11 11 10 10 9 9 9 9 8 8 8 9 9 9 9 10
37 37 39 39 37 34 32 32 31 31 30 30 29 27 26 24 23 22 20 19 18 17 17 16 16 15 15 15 14 13 13 13 13 13 12 12 11 11 10 10 10 10 10 10 10 11 11 11 11
39 39 40 40 37 35 34 34 34 33 32 31 31 29 28 26 25 24 22 21 20 19 18 18 17 17 17 16 16 15 15 14 14 14 14 14 13 12 12 12 12 12 12 12 12 12 12 12 12
41 41 41 40 37 36 36 36 36 35 34 33 32 31 30 28 27 25 24 23 22 21 20 19 19 18 18 18 17 17 17 16 16 16 16 15 15 14 14 14 14 14 14 14 14 14 14 14 14
43 43 42 40 37 37 36 37 37 36 35 35 34 33 31 30 29 27 26 25 24 23 22 21 21 20 19 19 19 19 19 18 18 18 17 17 16 15 15 15 15 15 15 15 15 16 16 16 16
44 44 43 41 39 38 37 38 38 37 36 36 36 35 33 32 30 29 28 27 27 25 24 23 22 21 21 21 21 21 21 20 20 19 19 18 17 17 17 17 17 17 17 17 17 17 17 17 17
46 46 45 42 40 38 39 39 39 39 38 38 38 36 35 34 32 31 30 29 28 27 26 25 24 23 23 22 22 22 22 22 21 21 21 20 19 19 19 19 19 19 18 18 18 18 18 18 18
48 48 45 43 41 40 40 41 40 40 40 40 39 38 36 35 34 32 31 30 29 28 28 27 26 25 24 24 23 23 23 23 23 23 22 22 21 21 21 20 20 20 20 20 20 20 20 20 20
49 48 45 44 43 42 42 42 42 42 42 41 40 39 38 37 36 34 33 32 31 30 29 29 28 27 26 25 25 24 24 24 24 24 24 24 23 23 22 22 22 21 21 21 21 22 22 22 21
49 48 46 45 44 43 43 43 43 43 42 42 41 41 39 38 37 36 34 34 33 32 31 31 30 29 28 27 26 26 25 25 25 25 25 25 24 24 24 24 23 23 23 23 23 23 22 23 22
48 47 47 46 45 44 44 44 44 44 43 43 42 41 40 39 38 37 36 35 34 33 33 32 32 31 30 29 28 28 27 27 27 26 26 26 26 26 26 25 25 25 24 24 24 24 24 24 24
47 47 48 47 47 46 45 45 45 44 44 43 43 42 41 40 39 38 37 36 35 35 34 34 33 33 32 31 31 30 29 29 29 28 28 28 28 27 27 27 26 26 26 26 26 26 25 25 25
46 47 47 48 48 47 47 46 45 44 45 44 43 43 43 41 40 39 38 37 36 36 35 34 34 34 34 33 33 32 31 31 31 31 30 30 30 29 29 29 28 28 27 27 27 27 27 27 26
47 47 47 48 48 48 48 46 44 45 45 45 44 44 43 42 41 40 39 39 38 37 36 35 35 35 35 35 34 34 33 33 32 32 32 32 31 31 30 30 29 29 28 28 28 28 28 28 28
48 48 47 47 48 49 49 47 45 45 45 45 45 44 44 43 42 41 40 40 39 39 38 37 36 36 36 36 36 36 35 34 34 33 33 33 32 32 32 32 31 31 30 30 30 29 29 29 30
46 47 47 47 47 48 48 48 46 46 46 45 45 45 44 44 43 42 41 41 41 40 40 39 38 38 38 38 38 37 36 36 36 35 34 34 34 33 33 32 32 31 31 31 31 31 31 31 32
45 45 46 46 47 48 48 48 46 46 46 45 45 45 45 45 44 44 42 42 42 41 41 40 39 39 39 39 38 38 38 37 36 35 35 35 35 34 34 34 33 32 32 32 32 33 33 33 33
44 44 44 45 46 47 48 48 47 46 46 46 45 45 44 45 46 45 44 43 43 42 42 41 40 40 40 40 40 39 39 39 38 37 36 36 36 35 35 35 34 34 34 34 34 34 34 34 34
42 42 42 43 45 46 47 48 47 47 47 47 46 45 45 44 45 46 45 44 44 43 42 42 41 41 41 41 41 41 41 40 40 39 38 38 37 36 36 36 35 35 36 36 36 36 36 35 35
40 41 41 42 43 45 46 48 48 48 48 47 46 46 45 45 45 45 45 45 44 44 43 43 43 42 42 43 42 42 42 41 40 40 39 39 39 38 38 38 38 37 37 37 37 36 36 35 36
36 37 38 40 42 44 45 47 47 47 47 47 45 45 45 45 45 45 45 45 45 45 45 44 44 44 43 44 44 44 44 43 42 41 41 41 40 40 40 39 39 39 37 37 38 38 37 37 37
34 35 35 37 39 43 43 44 44 44 44 45 45 45 44 45 44 44 45 45 45 46 46 45 45 45 44 44 45 45 45 45 44 43 43 42 41 41 41 41 41 40 39 39 39 39 39 39 39
32 33 33 34 38 41 41 43 42 42 42 42 43 44 44 44 44 44 45 45 45 45 46 46 46 46 45 45 46 46 46 46 46 45 44 44 43 42 42 42 42 41 42 41 40 40 40 40 40
30 32 34 34 36 37 39 41 41 41 41 41 42 43 44 45 45 44 44 44 45 45 45 46 46 46 46 46 46 47 47 46 46 46 46 45 45 44 44 44 43 42 42 42 42 42 42 42 42
29 31 32 34 35 35 36 39 39 38 38 39 40 41 43 44 44 45 45 45 45 45 45 45 46 46 47 47 47 48 48 47 47 46 45 45 45 45 45 44 44 44 43 44 43 43 43 43 44
29 30 31 33 33 34 34 36 37 36 35 37 38 39 41 42 44 44 45 46 46 46 46 46 46 47 46 46 47 47 47 47 47 46 46 45 45 45 44 44 44 44 43 44 44 44 44 44 45
30 31 32 33 34 34 34 35 35 35 35 36 37 38 39 40 42 43 44 44 45 46 47 47 47 47 47 47 47 47 47 47 47 47 46 46 45 45 45 45 45 45 45 44 45 44 45 45 45
30 30 31 33 33 33 33 33 33 34 34 34 36 36 37 39 40 42 43 44 45 46 46 46 47 47 47 48 48 48 48 48 48 48 48 47 47 46 46 46 46 45 45 45 45 45 45 45 45
Wind_Direction
230 229 229 229 228 228 226 224 222 222 223 224 225 226 226 227 226 224 223 221 221 222 224 226 229 230 229 231 234 235 235 237 241 243 245 246 246 246 246 250 258 263 270 280 287 296 305 308 310
230 229 230 230 230 229 228 226 225 224 226 227 227 228 229 229 229 229 227 225 225 226 229 231 233 235 235 235 236 236 237 239 241 244 246 247 248 248 247 251 259 265 271 278 284 289 295 299 304
230 229 230 231 231 230 229 228 227 227 227 227 228 229 230 231 230 231 231 229 230 231 233 234 234 235 236 237 237 237 239 241 243 244 246 249 249 249 252 255 260 266 271 277 282 286 290 294 299
231 230 230 231 231 230 230 229 228 228 228 229 229 230 230 231 231 231 233 234 235 235 236 237 237 238 239 238 239 238 239 243 244 246 247 250 251 251 254 257 262 267 272 277 281 284 287 291 294
231 231 231 231 230 230 230 229 229 229 229 230 230 230 230 230 232 232 234 235 237 238 239 239 239 241 240 240 241 241 243 244 246 248 250 252 253 254 255 258 263 267 270 274 278 282 284 287 290
232 232 232 231 230 230 231 230 229 229 230 231 231 231 231 231 232 233 234 236 238 240 240 241 241 242 243 242 242 243 245 246 247 249 251 253 254 256 258 260 263 266 270 273 276 279 283 286 289
232 233 233 232 231 230 231 231 231 230 230 231 231 231 231 232 232 233 235 237 239 240 241 242 242 243 244 243 244 245 246 247 249 252 253 253 254 256 258 260 262 266 270 274 276 279 282 285 288
232 233 233 231 230 230 231 231 231 230 230 231 231 231 231 232 233 234 235 237 239 240 240 242 243 244 245 245 245 246 247 248 250 252 253 253 253 255 258 260 262 266 270 273 276 279 282 284 285
232 232 232 231 230 230 231 231 231 230 230 231 233 233 233 233 234 235 236 237 239 240 240 241 243 244 244 245 246 247 249 250 251 251 252 252 253 255 258 260 263 266 270 272 275 278 280 282 283
231 232 232 231 231 230 231 231 230 230 230 231 233 234 234 235 235 235 236 237 238 240 240 241 242 243 244 245 247 248 250 251 251 252 252 252 253 255 258 260 263 267 269 271 273 275 277 279 281
230 231 231 230 230 230 230 231 231 231 231 232 233 234 234 235 235 235 236 236 237 238 240 241 241 242 244 245 247 249 250 251 252 253 253 253 254 256 258 260 263 266 269 271 273 275 276 278 279
229 229 229 229 229 230 230 231 231 232 232 232 233 234 234 235 235 235 236 236 236 237 238 240 241 242 244 245 247 248 250 251 253 254 254 254 254 256 258 260 263 266 268 270 272 274 275 277 279
228 228 228 227 228 229 231 231 231 232 233 233 233 234 234 234 235 235 236 236 237 238 239 240 241 243 245 246 248 249 251 252 252 253 253 254 255 256 258 260 263 266 268 270 271 273 274 276 279
228 227 227 227 228 229 230 232 232 232 233 234 233 234 234 234 234 235 236 236 237 238 238 240 241 243 244 246 248 249 251 251 252 252 253 253 255 256 258 260 262 265 267 268 269 270 272 275 278
227 227 227 227 228 228 229 231 232 233 233 234 234 234 235 235 235 235 235 236 237 237 238 239 241 243 244 245 247 249 250 251 252 252 253 253 254 256 257 259 262 264 265 267 268 270 272 274 277
226 226 226 226 227 228 229 230 231 232 233 234 234 235 235 235 236 236 236 236 237 238 238 239 241 243 244 245 247 249 250 251 252 252 253 254 255 256 258 259 261 262 264 266 268 270 272 274 276
226 226 227 227 227 228 230 231 230 232 233 233 233 234 235 235 236 237 237 237 238 239 240 240 242 243 244 245 246 248 249 250 251 252 253 254 255 256 258 259 260 262 264 265 267 269 271 273 276
226 227 227 228 228 228 230 231 230 231 232 233 233 233 234 235 235 236 237 237 238 239 240 241 242 243 244 245 246 247 249 250 251 252 253 254 255 257 259 260 260 261 263 265 266 268 270 273 275
228 228 229 229 230 230 230 230 230 231 232 232 232 233 234 234 235 236 237 238 239 239 239 241 243 244 245 246 246 247 249 250 251 253 254 255 255 257 259 261 261 262 264 266 268 269 271 273 275
227 228 229 230 231 231 231 231 231 232 233 232 232 233 233 234 235 236 236 238 239 239 240 241 242 244 246 247 247 247 247 249 250 251 253 254 255 256 258 261 262 263 265 267 268 270 272 274 276
227 229 230 231 231 231 231 231 231 233 234 234 233 233 234 234 235 236 236 238 239 240 241 241 242 244 246 247 247 247 247 248 249 250 252 253 255 257 259 261 262 264 265 267 268 270 272 274 276
228 230 232 232 232 231 231 233 231 232 234 234 235 235 236 236 236 237 237 238 239 240 241 242 243 244 246 247 247 248 248 248 249 251 252 253 255 257 259 261 262 264 266 266 267 269 271 273 275
228 229 232 233 234 233 233 234 232 233 234 234 235 236 236 237 237 237 238 238 239 240 241 242 243 245 246 247 247 248 248 248 249 250 252 254 255 257 258 260 262 264 266 266 267 269 271 273 275
226 227 230 233 234 234 233 235 234 234 235 235 235 236 236 237 237 237 237 238 239 240 241 242 244 245 246 247 247 248 248 249 250 251 252 254 255 257 258 260 262 263 265 266 267 268 270 272 274
224 225 227 231 233 236 235 236 235 235 236 236 237 237 238 238 238 238 238 239 239 240 241 242 244 245 246 247 248 248 249 249 250 251 252 254 255 257 259 260 262 263 264 266 268 268 270 272 274
224 226 228 231 234 237 236 237 237 237 237 238 238 239 239 240 240 240 240 241 240 241 242 243 244 245 246 247 248 248 249 250 250 251 252 254 255 257 259 260 261 263 264 265 268 269 270 272 274
224 225 229 232 236 238 237 238 239 239 239 239 239 240 240 240 240 241 241 241 241 242 242 244 244 245 246 247 248 248 249 249 250 250 251 252 254 256 257 259 260 262 263 265 268 269 270 272 274
228 227 228 231 235 238 239 240 240 241 243 242 241 242 242 242 241 241 242 242 242 242 243 244 245 245 245 246 247 248 248 249 249 249 250 251 253 255 256 258 260 262 263 265 267 269 271 273 274
228 229 231 232 235 239 242 243 242 244 245 245 244 244 243 244 244 244 244 244 243 243 244 245 245 245 245 246 246 248 249 250 250 249 250 252 253 255 257 259 261 263 264 266 268 270 272 273 274
231 232 233 234 237 241 243 244 244 246 247 246 244 244 243 244 245 246 246 245 244 244 244 244 244 244 245 246 247 248 249 250 251 251 251 253 254 255 257 260 262 263 265 267 268 270 272 274 275
Height
5829 5832 5836 5839 5841 5844 5847 5852 5855 5857 5859 5861 5863 5865 5868 5870 5873 5876 5876 5876 5877 5878 5879 5880 5881 5882 5883 5884 5885 5886 5887 5888 5889 5889 5890 5890 5890 5891 5891 5891 5891 5891 5891 5890 5890 5890 5890 5889 5888
5823 5826 5830 5832 5835 5838 5843 5848 5851 5854 5856 5857 5859 5862 5864 5867 5869 5871 5872 5874 5875 5877 5878 5879 5880 5881 5882 5883 5884 5885 5886 5887 5887 5888 5889 5889 5889 5890 5890 5890 5890 5890 5890 5890 5889 5889 5889 5888 5887
5816 5820 5823 5826 5829 5834 5840 5844 5847 5848 5851 5853 5855 5858 5861 5863 5866 5868 5870 5871 5873 5874 5875 5877 5878 5879 5880 5881 5882 5883 5884 5885 5886 5887 5887 5888 5888 5888 5889 5889 5889 5889 5889 5889 5888 5888 5887 5887 5886
5810 5813 5816 5820 5824 5830 5834 5838 5841 5843 5845 5848 5851 5853 5857 5860 5863 5864 5866 5868 5870 5872 5873 5874 5875 5877 5878 5879 5880 5881 5882 5883 5884 5885 5886 5886 5886 5887 5887 5887 5888 5888 5887 5887 5887 5886 5886 5885 5884
5802 5805 5809 5813 5818 5824 5828 5831 5834 5837 5840 5843 5846 5849 5852 5855 5858 5860 5863 5865 5867 5868 5870 5871 5873 5874 5875 5877 5878 5879 5880 5881 5882 5883 5884 5884 5884 5885 5885 5885 5886 5886 5886 5885 5885 5885 5884 5883 5883
5794 5798 5802 5807 5813 5818 5822 5825 5828 5831 5834 5838 5841 5844 5847 5850 5853 5856 5858 5861 5863 5865 5867 5868 5870 5871 5872 5874 5875 5876 5878 5879 5880 5880 5881 5882 5882 5883 5883 5883 5883 5883 5883 5883 5883 5882 5882 5881 5880
5787 5791 5795 5802 5807 5811 5815 5817 5821 5825 5828 5832 5835 5838 5841 5845 5848 5851 5854 5856 5858 5861 5863 5864 5866 5868 5869 5871 5872 5873 5874 5876 5877 5878 5878 5879 5880 5880 5881 5881 5881 5881 5881 5880 5880 5880 5879 5879 5878
5778 5783 5787 5793 5799 5804 5808 5810 5814 5818 5822 5825 5829 5832 5836 5839 5843 5846 5849 5851 5853 5856 5859 5861 5862 5864 5866 5867 5868 5870 5871 5872 5873 5874 5875 5876 5877 5877 5878 5878 5878 5878 5878 5878 5877 5877 5876 5876 5875
5768 5774 5779 5787 5792 5797 5800 5803 5807 5810 5814 5818 5822 5827 5831 5833 5837 5840 5843 5846 5849 5851 5854 5856 5858 5860 5861 5863 5865 5866 5867 5869 5870 5871 5872 5873 5874 5874 5875 5875 5875 5875 5875 5875 5874 5874 5873 5873 5872
5758 5764 5773 5780 5784 5789 5792 5795 5799 5803 5807 5811 5815 5820 5824 5827 5831 5835 5838 5841 5844 5846 5849 5851 5853 5855 5857 5859 5860 5862 5863 5865 5866 5867 5868 5869 5870 5870 5871 5871 5871 5871 5871 5871 5871 5870 5870 5869 5868
5749 5756 5764 5770 5775 5779 5783 5787 5791 5795 5800 5804 5809 5813 5817 5820 5824 5828 5832 5835 5838 5840 5843 5845 5848 5850 5852 5854 5856 5857 5859 5860 5861 5862 5864 5865 5866 5866 5867 5867 5867 5867 5867 5867 5867 5866 5866 5865 5865
5740 5747 5754 5760 5765 5770 5774 5778 5783 5787 5792 5797 5801 5805 5810 5813 5817 5821 5825 5828 5831 5834 5837 5839 5842 5844 5847 5849 5851 5852 5854 5855 5857 5858 5859 5860 5861 5862 5863 5863 5863 5863 5863 5863 5863 5862 5862 5861 5860
5730 5737 5744 5751 5756 5761 5765 5770 5774 5779 5784 5789 5793 5797 5802 5806 5810 5814 5817 5821 5825 5828 5831 5833 5836 5838 5841 5843 5845 5847 5849 5850 5852 5853 5854 5855 5856 5857 5858 5858 5859 5859 5859 5858 5858 5858 5857 5856 5856
5721 5727 5734 5740 5746 5751 5757 5761 5766 5772 5776 5781 5785 5790 5794 5798 5802 5806 5810 5814 5818 5821 5824 5827 5829 5832 5835 5837 5839 5841 5843 5845 5846 5848 5849 5850 5851 5852 5853 5853 5854 5854 5854 5853 5853 5852 5852 5852 5851
5711 5718 5724 5730 5736 5742 5748 5753 5758 5763 5768 5772 5777 5782 5786 5790 5795 5799 5803 5807 5810 5814 5817 5820 5822 5825 5828 5831 5833 5835 5837 5839 5840 5842 5843 5844 5846 5846 5847 5848 5848 5848 5848 5848 5848 5847 5847 5846 5846
5701 5707 5714 5722 5727 5732 5739 5745 5750 5753 5759 5764 5769 5773 5778 5782 5787 5791 5795 5799 5803 5806 5810 5813 5816 5818 5821 5824 5826 5829 5831 5832 5834 5835 5837 5838 5839 5840 5841 5842 5842 5842 5842 5842 5842 5842 5841 5841 5840
5691 5698 5706 5712 5717 5723 5728 5735 5741 5745 5750 5755 5760 5765 5769 5774 5779 5783 5787 5791 5795 5798 5802 5805 5808 5811 5814 5816 5819 5821 5823 5825 5827 5829 5830 5832 5833 5833 5834 5835 5835 5836 5836 5836 5836 5836 5836 5835 5834
5684 5691 5697 5703 5709 5714 5719 5727 5733 5736 5741 5747 5751 5756 5761 5766 5771 5775 5779 5783 5787 5790 5794 5797 5800 5803 5806 5808 5811 5814 5816 5818 5820 5822 5823 5825 5826 5826 5827 5827 5828 5829 5829 5829 5829 5829 5829 5829 5828
5677 5683 5689 5695 5700 5706 5711 5717 5723 5727 5732 5737 5742 5747 5752 5757 5762 5766 5770 5774 5778 5782 5785 5789 5792 5795 5798 5800 5803 5806 5808 5810 5813 5814 5816 5817 5819 5820 5820 5820 5821 5822 5822 5823 5822 5822 5822 5821 5821
5668 5674 5680 5686 5691 5696 5702 5708 5714 5718 5723 5728 5733 5738 5743 5748 5753 5757 5761 5765 5769 5773 5777 5780 5783 5786 5789 5792 5795 5798 5800 5802 5805 5807 5808 5810 5811 5812 5813 5813 5814 5814 5815 5815 5815 5815 5815 5814 5813
5661 5667 5672 5677 5682 5686 5692 5698 5704 5709 5713 5719 5724 5729 5734 5739 5743 5748 5752 5756 5761 5765 5768 5772 5775 5777 5780 5783 5786 5788 5791 5793 5796 5798 5800 5802 5803 5804 5805 5806 5806 5806 5807 5807 5807 5807 5807 5806 5806
5654 5659 5664 5669 5673 5677 5683 5688 5695 5700 5704 5710 5715 5720 5725 5730 5734 5738 5743 5747 5751 5755 5759 5763 5766 5768 5771 5774 5776 5779 5782 5785 5787 5790 5791 5793 5794 5796 5797 5798 5798 5798 5798 5799 5799 5799 5799 5798 5797
5648 5653 5657 5661 5665 5670 5674 5679 5686 5690 5695 5701 5707 5712 5716 5721 5725 5729 5733 5737 5741 5745 5749 5753 5756 5759 5762 5764 5767 5770 5772 5775 5778 5780 5782 5784 5785 5787 5788 5789 5789 5790 5790 5790 5790 5790 5790 5790 5789
5641 5646 5649 5653 5656 5661 5666 5671 5677 5682 5688 5693 5698 5703 5707 5711 5715 5720 5724 5727 5731 5735 5739 5742 5746 5749 5752 5754 5757 5760 5762 5765 5768 5771 5773 5775 5776 5778 5779 5780 5780 5781 5782 5782 5782 5781 5781 5781 5780
5634 5639 5643 5645 5648 5653 5659 5662 5668 5674 5679 5684 5689 5693 5697 5701 5706 5710 5714 5718 5721 5725 5729 5732 5736 5739 5742 5745 5747 5750 5752 5755 5758 5760 5763 5765 5767 5768 5769 5770 5771 5772 5772 5773 5773 5772 5772 5772 5771
5629 5633 5637 5640 5642 5647 5650 5653 5661 5666 5670 5675 5679 5683 5687 5691 5696 5700 5704 5708 5711 5715 5718 5722 5725 5728 5731 5734 5737 5739 5742 5745 5747 5750 5752 5754 5756 5758 5759 5760 5761 5762 5763 5763 5763 5763 5763 5762 5761
5624 5627 5631 5634 5636 5640 5643 5647 5653 5658 5662 5666 5670 5673 5677 5681 5686 5690 5694 5697 5701 5704 5707 5711 5714 5717 5720 5723 5726 5729 5731 5734 5736 5739 5741 5743 5745 5747 5749 5750 5751 5752 5753 5753 5753 5753 5753 5752 5751
5619 5622 5625 5628 5630 5633 5637 5641 5646 5651 5654 5658 5661 5664 5668 5672 5675 5679 5683 5686 5690 5693 5696 5699 5702 5705 5708 5711 5715 5717 5720 5722 5725 5728 5730 5733 5735 5736 5738 5739 5741 5742 5742 5743 5743 5743 5742 5741 5740
5614 5617 5619 5622 5625 5628 5631 5637 5639 5643 5646 5649 5652 5655 5659 5662 5665 5669 5672 5675 5678 5681 5684 5687 5690 5694 5697 5700 5703 5706 5708 5711 5713 5716 5719 5721 5723 5725 5727 5729 5730 5731 5732 5732 5732 5732 5731 5730 5729
5608 5611 5614 5618 5620 5622 5625 5632 5632 5636 5638 5641 5643 5646 5649 5652 5655 5658 5661 5663 5666 5669 5673 5676 5678 5682 5685 5688 5691 5694 5697 5699 5702 5704 5707 5709 5712 5714 5716 5717 5718 5720 5720 5721 5721 5720 5720 5719 5718